When you browse on this site, cookies collect data to enhance your experience and personalize the content and advertising you see.
Visit our Privacy Policy to learn more. By continuing to use the site, you agree to this use of cookies and data.
  • In Hungary
  • List of Countries
  • For 7 days
  • Water Temperature
  • Weather Map
  • News
  • Weather Widgets
  • user-avatar
    Login

    Hourly Weather Bialojany

    Today, 31 March, Tuesday

    Time Temperature Precipitation Wind Pressure Humidity
    00:00 -2°C° 0 mm 2 mps 753 mmHg 73%
    01:00 -2°C° 0 mm 2 mps 754 mmHg 78%
    02:00 -2°C° 0.2 mm 2 mps 754 mmHg 81%
    03:00 -3°C° 0.2 mm 2 mps 754 mmHg 85%
    04:00 -3°C° 0.2 mm 2 mps 754 mmHg 89%
    05:00 -3°C° 0.2 mm 2 mps 754 mmHg 82%
    06:00 -2°C° 0.2 mm 2 mps 754 mmHg 75%
    07:00 -2°C° 0 mm 2 mps 755 mmHg 65%
    08:00 -1°C° 0 mm 2 mps 755 mmHg 60%
    09:00 +1°C° 0 mm 2 mps 755 mmHg 56%
    10:00 +2°C° 0 mm 2 mps 755 mmHg 51%
    11:00 +3°C° 0.1 mm 2 mps 754 mmHg 50%
    12:00 +2°C° 0.1 mm 3 mps 754 mmHg 48%
    13:00 +3°C° 0 mm 3 mps 754 mmHg 45%
    14:00 +2°C° 0.1 mm 3 mps 754 mmHg 48%
    15:00 +2°C° 0.1 mm 3 mps 754 mmHg 51%
    16:00 +2°C° 0.1 mm 3 mps 753 mmHg 54%
    17:00 +1°C° 0 mm 3 mps 753 mmHg 63%
    18:00 -1°C° 0 mm 3 mps 753 mmHg 72%
    19:00 -2°C° 0 mm 3 mps 753 mmHg 81%
    20:00 -4°C° 0 mm 3 mps 753 mmHg 82%
    21:00 -4°C° 0 mm 3 mps 753 mmHg 83%
    22:00 -5°C° 0 mm 3 mps 753 mmHg 83%
    23:00 -5°C° 0 mm 3 mps 753 mmHg 82%

    Tomorrow, 1 April, Wednesday

    Time Temperature Precipitation Wind Pressure Humidity
    00:00 -4°C° 0 mm 3 mps 752 mmHg 82%
    01:00 -4°C° 0 mm 4 mps 752 mmHg 81%
    02:00 -4°C° 0 mm 4 mps 751 mmHg 78%
    03:00 -5°C° 0 mm 5 mps 751 mmHg 74%
    04:00 -5°C° 0 mm 5 mps 750 mmHg 71%
    05:00 -4°C° 0 mm 5 mps 750 mmHg 68%
    06:00 -4°C° 0 mm 6 mps 750 mmHg 65%
    07:00 -4°C° 0 mm 6 mps 749 mmHg 62%
    08:00 -2°C° 0 mm 6 mps 749 mmHg 61%
    09:00 -1°C° 0 mm 7 mps 748 mmHg 60%
    10:00 +2°C° 0 mm 7 mps 748 mmHg 58%
    11:00 +2°C° 0 mm 7 mps 748 mmHg 59%
    12:00 +3°C° 0 mm 7 mps 747 mmHg 59%
    13:00 +4°C° 0 mm 7 mps 747 mmHg 60%
    14:00 +3°C° 0 mm 7 mps 747 mmHg 61%
    15:00 +3°C° 0 mm 6 mps 746 mmHg 63%
    16:00 +3°C° 0 mm 6 mps 746 mmHg 65%
    17:00 +2°C° 0 mm 5 mps 746 mmHg 70%
    18:00 +1°C° 0 mm 5 mps 745 mmHg 75%
    19:00 0°C° 0 mm 4 mps 745 mmHg 80%
    20:00 0°C° 0 mm 4 mps 745 mmHg 83%
    21:00 0°C° 0 mm 5 mps 744 mmHg 87%
    22:00 -1°C° 0 mm 5 mps 744 mmHg 90%
    23:00 0°C° 0 mm 5 mps 744 mmHg 88%

    Day after tomorrow, 2 April, Thursday

    Time Temperature Precipitation Wind Pressure Humidity
    00:00 -1°C° 0 mm 6 mps 743 mmHg 87%
    01:00 -1°C° 0 mm 6 mps 743 mmHg 85%
    02:00 -1°C° 0 mm 6 mps 743 mmHg 87%
    03:00 -1°C° 0 mm 6 mps 742 mmHg 89%
    04:00 -1°C° 0 mm 6 mps 742 mmHg 91%
    05:00 -1°C° 0 mm 6 mps 742 mmHg 88%
    06:00 0°C° 0 mm 7 mps 742 mmHg 85%
    07:00 0°C° 0 mm 7 mps 742 mmHg 82%
    08:00 0°C° 0 mm 7 mps 742 mmHg 82%
    09:00 0°C° 0 mm 7 mps 742 mmHg 82%
    10:00 +2°C° 0 mm 7 mps 742 mmHg 82%
    11:00 +3°C° 0 mm 6 mps 742 mmHg 76%
    12:00 +3°C° 0 mm 6 mps 742 mmHg 71%
    13:00 +4°C° 0 mm 6 mps 742 mmHg 65%
    14:00 +4°C° 0 mm 6 mps 742 mmHg 65%
    15:00 +4°C° 0 mm 6 mps 741 mmHg 65%
    16:00 +4°C° 0 mm 6 mps 741 mmHg 65%
    17:00 +4°C° 0 mm 6 mps 741 mmHg 66%
    18:00 +3°C° 0 mm 5 mps 741 mmHg 67%
    19:00 +3°C° 0 mm 5 mps 741 mmHg 68%
    20:00 +3°C° 0 mm 5 mps 740 mmHg 68%
    21:00 +3°C° 0 mm 5 mps 740 mmHg 67%
    22:00 +3°C° 0 mm 6 mps 739 mmHg 67%
    23:00 +3°C° 0 mm 6 mps 739 mmHg 68%

    3 April, Friday

    Time Temperature Precipitation Wind Pressure Humidity
    00:00 +3°C° 0 mm 6 mps 738 mmHg 69%
    01:00 +2°C° 0 mm 6 mps 738 mmHg 70%
    02:00 +2°C° 0 mm 7 mps 738 mmHg 71%
    03:00 +2°C° 0 mm 7 mps 737 mmHg 73%
    04:00 +2°C° 0 mm 7 mps 737 mmHg 75%
    05:00 +2°C° 0.4 mm 7 mps 737 mmHg 77%
    06:00 +2°C° 0.4 mm 7 mps 738 mmHg 80%
    07:00 0°C° 0.4 mm 7 mps 738 mmHg 83%
    08:00 +1°C° 0.1 mm 8 mps 738 mmHg 76%
    09:00 +2°C° 0.1 mm 8 mps 739 mmHg 68%
    10:00 +3°C° 0.1 mm 9 mps 739 mmHg 61%
    11:00 +5°C° 0.1 mm 9 mps 740 mmHg 56%
    12:00 +5°C° 0.1 mm 9 mps 741 mmHg 51%
    13:00 +6°C° 0.1 mm 9 mps 741 mmHg 45%
    14:00 +6°C° 0 mm 8 mps 742 mmHg 45%
    15:00 +6°C° 0 mm 7 mps 742 mmHg 45%
    16:00 +5°C° 0 mm 6 mps 742 mmHg 45%
    17:00 +4°C° 0.2 mm 6 mps 743 mmHg 54%
    18:00 +3°C° 0.2 mm 5 mps 743 mmHg 63%
    19:00 +3°C° 0.2 mm 4 mps 744 mmHg 72%
    20:00 +1°C° 0 mm 4 mps 744 mmHg 71%
    21:00 +1°C° 0 mm 4 mps 745 mmHg 71%
    22:00 0°C° 0 mm 4 mps 745 mmHg 70%
    23:00 0°C° 0 mm 5 mps 746 mmHg 71%

    4 April, Saturday

    Time Temperature Precipitation Wind Pressure Humidity
    00:00 -1°C° 0 mm 5 mps 746 mmHg 72%
    01:00 -1°C° 0 mm 5 mps 747 mmHg 73%
    02:00 -1°C° 0 mm 5 mps 747 mmHg 75%
    03:00 -2°C° 0 mm 5 mps 748 mmHg 76%
    04:00 -2°C° 0 mm 4 mps 749 mmHg 78%
    05:00 -1°C° 0 mm 5 mps 749 mmHg 74%
    06:00 -1°C° 0 mm 6 mps 750 mmHg 70%
    07:00 -1°C° 0 mm 6 mps 751 mmHg 66%
    08:00 +1°C° 0 mm 6 mps 752 mmHg 62%
    09:00 +2°C° 0 mm 6 mps 752 mmHg 57%
    10:00 +3°C° 0 mm 6 mps 753 mmHg 52%
    11:00 +4°C° 0.1 mm 6 mps 754 mmHg 51%
    12:00 +4°C° 0.1 mm 6 mps 754 mmHg 49%
    13:00 +5°C° 0.1 mm 6 mps 755 mmHg 48%
    14:00 +4°C° 0 mm 6 mps 755 mmHg 47%
    15:00 +4°C° 0 mm 6 mps 756 mmHg 46%
    16:00 +4°C° 0 mm 6 mps 756 mmHg 46%
    17:00 +2°C° 0 mm 5 mps 757 mmHg 51%
    18:00 +1°C° 0 mm 4 mps 757 mmHg 57%
    19:00 +1°C° 0 mm 3 mps 758 mmHg 62%
    20:00 0°C° 0 mm 3 mps 759 mmHg 67%
    21:00 -1°C° 0 mm 2 mps 759 mmHg 71%
    22:00 -1°C° 0 mm 2 mps 760 mmHg 76%
    23:00 0°C° 0 mm 1 mps 761 mmHg 76%

    5 April, Sunday

    Time Temperature Precipitation Wind Pressure Humidity
    00:00 0°C° 0 mm 1 mps 761 mmHg 76%
    01:00 0°C° 0 mm 1 mps 761 mmHg 77%
    02:00 -1°C° 0 mm 0 mps 762 mmHg 76%
    03:00 -1°C° 0 mm 0 mps 762 mmHg 75%
    04:00 -1°C° 0 mm 0 mps 762 mmHg 74%
    05:00 +1°C° 0 mm 1 mps 763 mmHg 69%
    06:00 +2°C° 0 mm 1 mps 763 mmHg 63%
    07:00 +2°C° 0 mm 2 mps 763 mmHg 58%
    08:00 +3°C° 0 mm 2 mps 764 mmHg 51%
    09:00 +5°C° 0 mm 2 mps 764 mmHg 44%
    10:00 +5°C° 0 mm 3 mps 764 mmHg 37%
    11:00 +7°C° 0 mm 3 mps 764 mmHg 36%
    12:00 +8°C° 0 mm 3 mps 763 mmHg 34%
    13:00 +9°C° 0 mm 3 mps 763 mmHg 32%
    14:00 +9°C° 0 mm 3 mps 763 mmHg 34%
    15:00 +9°C° 0 mm 3 mps 763 mmHg 35%
    16:00 +8°C° 0 mm 4 mps 762 mmHg 37%
    17:00 +7°C° 0 mm 3 mps 762 mmHg 42%
    18:00 +5°C° 0 mm 3 mps 762 mmHg 48%
    19:00 +3°C° 0 mm 3 mps 762 mmHg 53%
    20:00 +3°C° 0 mm 3 mps 762 mmHg 54%
    21:00 +2°C° 0 mm 3 mps 763 mmHg 55%
    22:00 +1°C° 0 mm 4 mps 763 mmHg 57%
    23:00 +1°C° 0 mm 4 mps 763 mmHg 58%
    Show more